Location: Boneville
(33.4331°N, 82.4399°W)
Time: 02:50:33
(UTC+00:00)

ISS - Visible Passes

Search period start: 07 December 2021 00:00
Search period end: 17 December 2021 00:00
Orbit: 417 x 422 km, 51.6° (Epoch: 06 December)

Date Brightness Start Highest point End Pass type
(mag) Time Alt. Az. Time Alt. Az. Time Alt. Az.
07 Dec -0.4 00:53:15 10° WNW 00:53:31 12° WNW 00:53:31 12° WNW visible
08 Dec -3.0 00:05:33 10° NW 00:08:51 52° SW 00:09:18 47° SSW visible
08 Dec -3.9 23:18:06 10° NW 23:21:30 79° NE 23:24:52 10° SE visible
10 Dec -0.6 00:08:41 10° W 00:10:36 14° SW 00:12:29 10° SSW visible
10 Dec -1.3 23:20:27 10° WNW 23:23:20 26° SW 23:26:13 10° S visible
